Location: Baia Mare
(47.6567°N, 23.5850°E)
Time: 05:53:53
(UTC+03:00)

ISS - Pass Details

Date: 26 May 2018
Orbit: 402 x 408 km, 51.6° (Epoch: 20 September)

Event Time Altitude Azimuth Distance (km) Brightness Sun altitude
Rises 22:04:08 0° 260° (W) 2,320 0.6 -8.0°
Reaches altitude 10° 22:06:15 10° 264° (W) 1,460 -0.4 -8.2°
Maximum altitude 22:09:28 55° 344° (NNW) 492 -3.0 -8.6°
Drops below altitude 10° 22:12:41 10° 64° (ENE) 1,460 -1.2 -9.0°
Sets 22:14:48 0° 69° (ENE) 2,320 -0.2 -9.3°
